Tiempo cada hora Muratbaev

Hoy, 22 Octubre, Jueves

Tiempo Temperatura Precipitaciones Viento Presión Humedad
00:00 +7°C° 0 mm 5 mps 753 mmHg 56%
01:00 +6°C° 0 mm 5 mps 753 mmHg 59%
02:00 +5°C° 0 mm 5 mps 753 mmHg 63%
03:00 +5°C° 0 mm 4 mps 753 mmHg 67%
04:00 +6°C° 0 mm 5 mps 754 mmHg 73%
05:00 +5°C° 0 mm 5 mps 754 mmHg 77%
06:00 +5°C° 0 mm 5 mps 754 mmHg 80%
07:00 +5°C° 0 mm 4 mps 755 mmHg 84%
08:00 +7°C° 0 mm 5 mps 755 mmHg 69%
09:00 +8°C° 0 mm 6 mps 755 mmHg 53%
10:00 +10°C° 0 mm 6 mps 755 mmHg 38%
11:00 +10°C° 0 mm 7 mps 754 mmHg 36%
12:00 +10°C° 0 mm 7 mps 754 mmHg 35%
13:00 +11°C° 0 mm 7 mps 754 mmHg 33%
14:00 +11°C° 0 mm 7 mps 754 mmHg 34%
15:00 +10°C° 0 mm 6 mps 754 mmHg 36%
16:00 +10°C° 0 mm 6 mps 754 mmHg 38%
17:00 +9°C° 0 mm 5 mps 754 mmHg 41%
18:00 +8°C° 0 mm 4 mps 754 mmHg 44%
19:00 +7°C° 0 mm 4 mps 754 mmHg 46%
20:00 +6°C° 0 mm 4 mps 754 mmHg 50%
21:00 +5°C° 0 mm 4 mps 754 mmHg 54%
22:00 +4°C° 0 mm 4 mps 754 mmHg 57%
23:00 +4°C° 0 mm 3 mps 754 mmHg 58%

Mañana, 23 Octubre, Viernes

Tiempo Temperatura Precipitaciones Viento Presión Humedad
00:00 +3°C° 0 mm 3 mps 754 mmHg 60%
01:00 +3°C° 0 mm 3 mps 754 mmHg 61%
02:00 +2°C° 0 mm 3 mps 754 mmHg 63%
03:00 +2°C° 0 mm 3 mps 754 mmHg 65%
04:00 +1°C° 0 mm 3 mps 754 mmHg 67%
05:00 +1°C° 0 mm 3 mps 755 mmHg 66%
06:00 +1°C° 0 mm 3 mps 755 mmHg 66%
07:00 +1°C° 0 mm 3 mps 756 mmHg 66%
08:00 +4°C° 0 mm 3 mps 756 mmHg 58%
09:00 +6°C° 0 mm 4 mps 756 mmHg 50%
10:00 +8°C° 0 mm 5 mps 757 mmHg 42%
11:00 +8°C° 0 mm 5 mps 757 mmHg 38%
12:00 +9°C° 0 mm 5 mps 757 mmHg 33%
13:00 +10°C° 0 mm 6 mps 757 mmHg 29%
14:00 +9°C° 0 mm 5 mps 757 mmHg 29%
15:00 +9°C° 0 mm 5 mps 757 mmHg 29%
16:00 +8°C° 0 mm 4 mps 757 mmHg 29%
17:00 +6°C° 0 mm 4 mps 758 mmHg 32%
18:00 +4°C° 0 mm 3 mps 758 mmHg 35%
19:00 +2°C° 0 mm 3 mps 758 mmHg 39%
20:00 +2°C° 0 mm 2 mps 758 mmHg 40%
21:00 +2°C° 0 mm 2 mps 759 mmHg 41%
22:00 +1°C° 0 mm 2 mps 759 mmHg 42%
23:00 +1°C° 0 mm 2 mps 759 mmHg 41%

Pasado mañana, 24 Octubre, Sábado

Tiempo Temperatura Precipitaciones Viento Presión Humedad
00:00 +1°C° 0 mm 2 mps 759 mmHg 41%
01:00 +1°C° 0 mm 2 mps 759 mmHg 41%
02:00 +1°C° 0 mm 2 mps 759 mmHg 41%
03:00 +1°C° 0 mm 2 mps 759 mmHg 41%
04:00 +1°C° 0 mm 2 mps 759 mmHg 41%
05:00 +1°C° 0 mm 2 mps 759 mmHg 40%
06:00 +2°C° 0 mm 2 mps 759 mmHg 38%
07:00 +2°C° 0 mm 3 mps 759 mmHg 37%
08:00 +4°C° 0 mm 3 mps 759 mmHg 35%
09:00 +7°C° 0 mm 3 mps 759 mmHg 33%
10:00 +9°C° 0 mm 3 mps 760 mmHg 30%
11:00 +10°C° 0 mm 3 mps 759 mmHg 31%
12:00 +11°C° 0 mm 3 mps 759 mmHg 31%
13:00 +13°C° 0 mm 2 mps 758 mmHg 32%
14:00 +13°C° 0 mm 2 mps 758 mmHg 32%
15:00 +13°C° 0 mm 2 mps 758 mmHg 33%
16:00 +12°C° 0 mm 2 mps 758 mmHg 34%
17:00 +10°C° 0 mm 2 mps 758 mmHg 38%
18:00 +9°C° 0 mm 3 mps 758 mmHg 42%
19:00 +7°C° 0 mm 3 mps 758 mmHg 46%
20:00 +7°C° 0 mm 3 mps 758 mmHg 47%
21:00 +6°C° 0 mm 4 mps 758 mmHg 48%
22:00 +5°C° 0 mm 4 mps 758 mmHg 49%
23:00 +5°C° 0 mm 4 mps 758 mmHg 49%

, 25 Octubre, Domingo

Tiempo Temperatura Precipitaciones Viento Presión Humedad
00:00 +5°C° 0 mm 4 mps 758 mmHg 49%
01:00 +6°C° 0 mm 4 mps 757 mmHg 48%
02:00 +6°C° 0 mm 4 mps 757 mmHg 48%
03:00 +6°C° 0 mm 4 mps 757 mmHg 48%
04:00 +6°C° 0 mm 4 mps 757 mmHg 48%
05:00 +6°C° 0 mm 4 mps 758 mmHg 47%
06:00 +6°C° 0 mm 4 mps 758 mmHg 47%
07:00 +6°C° 0 mm 5 mps 758 mmHg 47%
08:00 +9°C° 0 mm 5 mps 758 mmHg 41%
09:00 +11°C° 0 mm 6 mps 758 mmHg 34%
10:00 +15°C° 0 mm 6 mps 758 mmHg 27%
11:00 +16°C° 0 mm 6 mps 758 mmHg 27%
12:00 +17°C° 0 mm 6 mps 757 mmHg 26%
13:00 +19°C° 0 mm 6 mps 757 mmHg 25%
14:00 +17°C° 0 mm 5 mps 757 mmHg 26%
15:00 +17°C° 0 mm 4 mps 757 mmHg 27%
16:00 +17°C° 0 mm 3 mps 756 mmHg 29%
17:00 +14°C° 0 mm 3 mps 756 mmHg 31%
18:00 +13°C° 0 mm 3 mps 756 mmHg 33%
19:00 +12°C° 0 mm 3 mps 756 mmHg 35%
20:00 +11°C° 0 mm 3 mps 756 mmHg 35%
21:00 +11°C° 0 mm 4 mps 756 mmHg 35%
22:00 +10°C° 0 mm 4 mps 756 mmHg 35%
23:00 +10°C° 0 mm 4 mps 756 mmHg 35%

25 Octubre, Domingo

Tiempo Temperatura Precipitaciones Viento Presión Humedad
00:00 +5°C° 0 mm 4 mps 758 mmHg 49%
01:00 +6°C° 0 mm 4 mps 757 mmHg 48%
02:00 +6°C° 0 mm 4 mps 757 mmHg 48%
03:00 +6°C° 0 mm 4 mps 757 mmHg 48%
04:00 +6°C° 0 mm 4 mps 757 mmHg 48%
05:00 +6°C° 0 mm 4 mps 758 mmHg 47%
06:00 +6°C° 0 mm 4 mps 758 mmHg 47%
07:00 +6°C° 0 mm 5 mps 758 mmHg 47%
08:00 +9°C° 0 mm 5 mps 758 mmHg 41%
09:00 +11°C° 0 mm 6 mps 758 mmHg 34%
10:00 +15°C° 0 mm 6 mps 758 mmHg 27%
11:00 +16°C° 0 mm 6 mps 758 mmHg 27%
12:00 +17°C° 0 mm 6 mps 757 mmHg 26%
13:00 +19°C° 0 mm 6 mps 757 mmHg 25%
14:00 +17°C° 0 mm 5 mps 757 mmHg 26%
15:00 +17°C° 0 mm 4 mps 757 mmHg 27%
16:00 +17°C° 0 mm 3 mps 756 mmHg 29%
17:00 +14°C° 0 mm 3 mps 756 mmHg 31%
18:00 +13°C° 0 mm 3 mps 756 mmHg 33%
19:00 +12°C° 0 mm 3 mps 756 mmHg 35%
20:00 +11°C° 0 mm 3 mps 756 mmHg 35%
21:00 +11°C° 0 mm 4 mps 756 mmHg 35%
22:00 +10°C° 0 mm 4 mps 756 mmHg 35%
23:00 +10°C° 0 mm 4 mps 756 mmHg 35%

26 Octubre, Lunes

Tiempo Temperatura Precipitaciones Viento Presión Humedad
00:00 +10°C° 0 mm 4 mps 756 mmHg 36%
01:00 +8°C° 0 mm 4 mps 755 mmHg 36%
02:00 +8°C° 0 mm 4 mps 755 mmHg 36%
03:00 +9°C° 0 mm 3 mps 755 mmHg 36%
04:00 +8°C° 0 mm 3 mps 755 mmHg 36%
05:00 +9°C° 0 mm 3 mps 754 mmHg 35%
06:00 +8°C° 0 mm 4 mps 754 mmHg 34%
07:00 +8°C° 0 mm 4 mps 754 mmHg 33%
08:00 +11°C° 0 mm 4 mps 754 mmHg 29%
09:00 +13°C° 0 mm 5 mps 753 mmHg 25%
10:00 +16°C° 0 mm 5 mps 753 mmHg 21%
11:00 +17°C° 0 mm 6 mps 752 mmHg 20%
12:00 +20°C° 0 mm 6 mps 752 mmHg 18%
13:00 +21°C° 0 mm 6 mps 751 mmHg 16%
14:00 +20°C° 0 mm 5 mps 751 mmHg 18%
15:00 +20°C° 0 mm 4 mps 750 mmHg 19%
16:00 +19°C° 0 mm 3 mps 750 mmHg 20%
17:00 +18°C° 0 mm 3 mps 749 mmHg 22%
18:00 +17°C° 0 mm 3 mps 749 mmHg 24%
19:00 +15°C° 0 mm 4 mps 748 mmHg 25%
20:00 +14°C° 0 mm 4 mps 748 mmHg 25%
21:00 +14°C° 0 mm 4 mps 748 mmHg 26%
22:00 +14°C° 0 mm 4 mps 747 mmHg 26%
23:00 +13°C° 0 mm 4 mps 747 mmHg 26%

27 Octubre, Martes

Tiempo Temperatura Precipitaciones Viento Presión Humedad
00:00 +13°C° 0 mm 4 mps 747 mmHg 27%
01:00 +12°C° 0 mm 4 mps 746 mmHg 27%
02:00 +11°C° 0 mm 4 mps 746 mmHg 28%
03:00 +11°C° 0 mm 4 mps 746 mmHg 29%
04:00 +10°C° 0 mm 3 mps 746 mmHg 30%
05:00 +10°C° 0 mm 3 mps 746 mmHg 37%
06:00 +9°C° 0 mm 3 mps 746 mmHg 44%
07:00 +9°C° 0 mm 2 mps 746 mmHg 51%
08:00 +10°C° 0 mm 3 mps 746 mmHg 50%
09:00 +12°C° 0 mm 4 mps 746 mmHg 48%
10:00 +14°C° 0 mm 4 mps 746 mmHg 47%
11:00 +14°C° 0 mm 5 mps 746 mmHg 43%
12:00 +15°C° 0 mm 6 mps 746 mmHg 39%
13:00 +15°C° 0 mm 7 mps 745 mmHg 35%
14:00 +11°C° 0 mm 9 mps 746 mmHg 45%
15:00 +8°C° 0 mm 10 mps 746 mmHg 55%
16:00 +4°C° 0 mm 11 mps 746 mmHg 64%
17:00 +3°C° 0 mm 10 mps 747 mmHg 65%
18:00 +1°C° 0 mm 9 mps 747 mmHg 66%
19:00 0°C° 0 mm 8 mps 748 mmHg 67%
20:00 +1°C° 0.3 mm 9 mps 748 mmHg 65%
21:00 +2°C° 0.3 mm 10 mps 749 mmHg 62%
22:00 +2°C° 0.3 mm 10 mps 749 mmHg 60%
23:00 +2°C° 0 mm 9 mps 750 mmHg 67%
Mostrar más

Necesitamos Su Consentimiento

Meteoprog y nuestros Proveedores de Servicios pueden almacenar y acceder a sus datos personales como cookies, identificadores de dispositivo u otras tecnologías similares de su dispositivo y procesar dichos datos para personalizar contenido y anuncios, además de ofrecer funciones de redes sociales y analizar el tráfico.

  • Almacenar y/o acceder a información en su dispositivo

    Se puede almacenar o acceder a cookies, identificadores de dispositivo u otra información de su dispositivo para los fines anteriormente indicados.

  • Anuncios y contenido personalizados, medición de anuncios y contenido, percepciones del público, y desarrollo de productos

    Los anuncios y el contenido pueden personalizarse en base a su perfil. Se pueden añadir más datos para personalizar mejor los anuncios y contenidos. Se puede medir el rendimiento de los anuncios y contenidos. Se puede obtener la percepción sobre el público que ha visto los anuncios y contenidos. Dichos datos pueden usarse para desarrollar o mejorar la experiencia del usuario, sistemas y software.

Al hacer clic en ‘Estoy De Acuerdo’ usted permitirá el uso de las cookies, identificadores de dispositivo, balizas web u otras tecnologías similares indicadas. Su configuración puede cambiarse desde el navegador de su dispositivo.

Para ciertos fines, los intereses legítimos pueden ser considerados por encima del consentimiento. Puede leer más sobre ello en nuestra Política de Privacidad y Cookies.